| time (UTC) | temp C | wind direction | speed KPH | gust KPH | rain 1hr cm | rain 24hr cm | rain mn cm | humidity % | barometer mb |
| 20260505083014 | 16 | 271 | 0.0 | 3.2 | 0.00 | 0.00 | 0.00 | 64 | 1010.8 |
| 20260505082029 | 16 | 263 | 0.0 | 6.4 | 0.00 | 0.00 | 0.00 | 65 | 1010.8 |
| 20260505081023 | 16 | 264 | 0.0 | 9.7 | 0.00 | 0.00 | 0.00 | 65 | 1010.8 |
| 20260505080029 | 16 | 189 | 0.0 | 8.0 | 0.00 | 0.00 | 0.00 | 65 | 1010.7 |
| 20260505075042 | 16 | 217 | 0.0 | 6.4 | 0.00 | 0.00 | 0.00 | 66 | 1010.8 |
| 20260505074014 | 16 | 190 | 0.0 | 4.8 | 0.00 | 0.00 | 0.00 | 66 | 1010.8 |
| 20260505073029 | 16 | 180 | 0.0 | 3.2 | 0.00 | 0.00 | 0.00 | 66 | 1010.8 |
| 20260505072023 | 16 | 180 | 0.0 | 4.8 | 0.00 | 0.00 | 0.00 | 66 | 1010.7 |
| 20260505071018 | 16 | 182 | 0.0 | 3.2 | 0.00 | 0.00 | 0.00 | 66 | 1010.8 |
| 20260505070025 | 16 | 188 | 0.0 | 4.8 | 0.00 | 0.00 | 0.00 | 66 | 1010.8 |
| 20260505065019 | 16 | 185 | 0.0 | 1.6 | 0.00 | 0.00 | 0.00 | 66 | 1010.8 |
| 20260505064034 | 16 | 184 | 0.0 | 6.4 | 0.00 | 0.00 | 0.00 | 66 | 1010.7 |
| 20260505063027 | 16 | 186 | 0.0 | 1.6 | 0.00 | 0.00 | 0.00 | 65 | 1010.7 |
| 20260505062020 | 16 | 188 | 0.0 | 0.0 | 0.00 | 0.00 | 0.00 | 65 | 1010.9 |
| 20260505061034 | 16 | 188 | 0.0 | 0.0 | 0.00 | 0.00 | 0.00 | 65 | 1010.7 |
| 20260505060041 | 16 | 188 | 0.0 | 1.6 | 0.00 | 0.00 | 0.00 | 65 | 1010.7 |
| 20260505055015 | 16 | 188 | 0.0 | 1.6 | 0.00 | 0.00 | 0.00 | 65 | 1010.7 |
| 20260505054029 | 16 | 188 | 0.0 | 1.6 | 0.00 | 0.00 | 0.00 | 65 | 1010.8 |
| 20260505053043 | 16 | 188 | 0.0 | 4.8 | 0.00 | 0.00 | 0.00 | 65 | 1011.0 |
| 20260505052033 | 16 | 188 | 0.0 | 0.0 | 0.00 | 0.00 | 0.00 | 66 | 1010.9 |
| 20260505051028 | 16 | 188 | 0.0 | 8.0 | 0.00 | 0.00 | 0.00 | 66 | 1011.0 |
| 20260505041016 | 17 | 192 | 0.0 | 6.4 | 0.00 | 0.00 | 0.00 | 67 | 1010.9 |
| 20260505040053 | 17 | 197 | 0.0 | 8.0 | 0.00 | 0.00 | 0.00 | 67 | 1010.8 |
| 20260505035017 | 17 | 183 | 1.6 | 9.7 | 0.00 | 0.00 | 0.00 | 67 | 1010.8 |
| 20260505034039 | 17 | 172 | 0.0 | 8.0 | 0.00 | 0.00 | 0.00 | 67 | 1010.7 |
| 20260505033023 | 17 | 181 | 0.0 | 6.4 | 0.00 | 0.00 | 0.00 | 68 | 1010.7 |
| 20260505032017 | 17 | 175 | 0.0 | 1.6 | 0.00 | 0.00 | 0.00 | 69 | 1010.6 |
| 20260505031032 | 17 | 175 | 0.0 | 4.8 | 0.00 | 0.00 | 0.00 | 69 | 1010.7 |
| 20260505030019 | 17 | 177 | 0.0 | 4.8 | 0.00 | 0.00 | 0.00 | 69 | 1010.8 |
| 20260505025014 | 17 | 175 | 0.0 | 3.2 | 0.00 | 0.00 | 0.00 | 68 | 1010.8 |
| 20260505024048 | 17 | 157 | 0.0 | 4.8 | 0.00 | 0.00 | 0.00 | 67 | 1010.7 |
| 20260505023021 | 17 | 145 | 0.0 | 3.2 | 0.00 | 0.00 | 0.00 | 65 | 1010.7 |
| 20260505022036 | 18 | 155 | 0.0 | 4.8 | 0.00 | 0.00 | 0.00 | 64 | 1010.9 |
| 20260505021049 | 18 | 158 | 0.0 | 1.6 | 0.00 | 0.00 | 0.00 | 63 | 1010.7 |
| 20260505020016 | 18 | 162 | 0.0 | 1.6 | 0.00 | 0.00 | 0.00 | 63 | 1010.8 |
| 20260505015026 | 18 | 164 | 0.0 | 0.0 | 0.00 | 0.00 | 0.00 | 63 | 1010.5 |
| 20260505014019 | 18 | 165 | 0.0 | 4.8 | 0.00 | 0.00 | 0.00 | 63 | 1010.5 |
| 20260505013015 | 18 | 185 | 0.0 | 0.0 | 0.00 | 0.00 | 0.00 | 63 | 1010.6 |
| 20260505012029 | 18 | 186 | 0.0 | 1.6 | 0.00 | 0.00 | 0.00 | 63 | 1010.6 |
| 20260505011014 | 18 | 186 | 0.0 | 0.0 | 0.00 | 0.00 | 0.00 | 63 | 1010.4 |
| 20260505010051 | 18 | 186 | 0.0 | 0.0 | 0.00 | 0.00 | 0.00 | 62 | 1010.3 |
| 20260505005024 | 18 | 188 | 0.0 | 0.0 | 0.00 | 0.00 | 0.00 | 61 | 1010.2 |
| 20260505004019 | 18 | 189 | 0.0 | 6.4 | 0.00 | 0.00 | 0.00 | 61 | 1010.1 |
| 20260505003033 | 18 | 165 | 0.0 | 0.0 | 0.00 | 0.00 | 0.00 | 60 | 1010.2 |
| 20260505002018 | 19 | 168 | 0.0 | 0.0 | 0.00 | 0.00 | 0.00 | 59 | 1010.1 |
| 20260505001032 | 19 | 168 | 0.0 | 3.2 | 0.00 | 0.00 | 0.00 | 57 | 1010.0 |
| 20260505000020 | 20 | 113 | 0.0 | 3.2 | 0.00 | 0.00 | 0.00 | 55 | 1010.0 |
| 20260504235015 | 20 | 112 | 0.0 | 0.0 | 0.00 | 0.00 | 0.00 | 54 | 1010.1 |
| 20260504234028 | 20 | 112 | 0.0 | 1.6 | 0.00 | 0.00 | 0.00 | 52 | 1010.1 |
| 20260504233023 | 21 | 109 | 0.0 | 6.4 | 0.00 | 0.00 | 0.00 | 51 | 1010.1 |
| 20260504232015 | 21 | 132 | 0.0 | 11.3 | 0.00 | 0.00 | 0.00 | 49 | 1010.1 |
| 20260504231029 | 21 | 101 | 1.6 | 12.9 | 0.00 | 0.00 | 0.00 | 48 | 1010.3 |
| 20260504230016 | 21 | 117 | 0.0 | 9.7 | 0.00 | 0.00 | 0.00 | 47 | 1010.0 |
| 20260504225031 | 21 | 154 | 1.6 | 12.9 | 0.00 | 0.00 | 0.00 | 46 | 1010.1 |
| 20260504224017 | 22 | 135 | 1.6 | 9.7 | 0.00 | 0.00 | 0.00 | 46 | 1010.2 |
| 20260504223012 | 22 | 124 | 3.2 | 12.9 | 0.00 | 0.00 | 0.00 | 44 | 1010.0 |
| 20260504222026 | 22 | 145 | 1.6 | 11.3 | 0.00 | 0.00 | 0.00 | 44 | 1010.0 |
| 20260504221019 | 23 | 107 | 0.0 | 11.3 | 0.00 | 0.00 | 0.00 | 43 | 1010.0 |
| 20260504220047 | 23 | 103 | 3.2 | 12.9 | 0.00 | 0.00 | 0.00 | 43 | 1009.9 |
| 20260504215049 | 23 | 157 | 3.2 | 11.3 | 0.00 | 0.00 | 0.00 | 44 | 1010.0 |
| 20260504214040 | 23 | 88 | 1.6 | 8.0 | 0.00 | 0.00 | 0.00 | 43 | 1009.9 |
| 20260504213030 | 23 | 101 | 1.6 | 9.7 | 0.00 | 0.00 | 0.00 | 42 | 1010.1 |
| 20260504212013 | 23 | 114 | 4.8 | 17.7 | 0.00 | 0.00 | 0.00 | 42 | 1010.2 |
| 20260504211027 | 23 | 112 | 1.6 | 12.9 | 0.00 | 0.00 | 0.00 | 41 | 1010.1 |
| 20260504210014 | 23 | 135 | 3.2 | 11.3 | 0.00 | 0.00 | 0.00 | 41 | 1009.9 |
| 20260504205029 | 23 | 161 | 0.0 | 11.3 | 0.00 | 0.00 | 0.00 | 42 | 1010.2 |
| 20260504204022 | 23 | 114 | 3.2 | 11.3 | 0.00 | 0.00 | 0.00 | 40 | 1010.2 |
| 20260504203016 | 23 | 150 | 1.6 | 11.3 | 0.00 | 0.00 | 0.00 | 42 | 1010.2 |
| 20260504202031 | 24 | 152 | 1.6 | 8.0 | 0.00 | 0.00 | 0.00 | 39 | 1010.3 |
| 20260504201025 | 24 | 102 | 1.6 | 11.3 | 0.00 | 0.00 | 0.00 | 39 | 1010.3 |
| 20260504200013 | 24 | 118 | 0.0 | 6.4 | 0.00 | 0.00 | 0.00 | 44 | 1010.5 |
| 20260504195026 | 23 | 176 | 0.0 | 9.7 | 0.00 | 0.00 | 0.00 | 40 | 1010.8 |
| 20260504194039 | 23 | 124 | 1.6 | 12.9 | 0.00 | 0.00 | 0.00 | 43 | 1011.0 |
| 20260504193024 | 23 | 100 | 4.8 | 11.3 | 0.00 | 0.00 | 0.00 | 38 | 1011.1 |
| 20260504192018 | 23 | 152 | 0.0 | 6.4 | 0.00 | 0.00 | 0.00 | 40 | 1011.2 |
| 20260504191012 | 23 | 101 | 1.6 | 12.9 | 0.00 | 0.00 | 0.00 | 41 | 1011.3 |
| 20260504190020 | 23 | 110 | 3.2 | 12.9 | 0.00 | 0.00 | 0.00 | 39 | 1011.5 |
| 20260504185014 | 23 | 109 | 3.2 | 11.3 | 0.00 | 0.00 | 0.00 | 40 | 1011.5 |
| 20260504184029 | 23 | 185 | 0.0 | 11.3 | 0.00 | 0.00 | 0.00 | 41 | 1011.7 |
| 20260504183024 | 23 | 112 | 1.6 | 6.4 | 0.00 | 0.00 | 0.00 | 40 | 1011.8 |
| 20260504182038 | 23 | 99 | 3.2 | 12.9 | 0.00 | 0.00 | 0.00 | 40 | 1011.9 |
| 20260504181023 | 23 | 288 | 1.6 | 11.3 | 0.00 | 0.00 | 0.00 | 36 | 1011.9 |
| 20260504180040 | 24 | 252 | 1.6 | 14.5 | 0.00 | 0.00 | 0.00 | 38 | 1012.1 |
| 20260504175025 | 23 | 109 | 0.0 | 12.9 | 0.00 | 0.00 | 0.00 | 38 | 1012.2 |
| 20260504174019 | 23 | 259 | 0.0 | 9.7 | 0.00 | 0.00 | 0.00 | 36 | 1012.4 |
| 20260504173031 | 23 | 167 | 1.6 | 14.5 | 0.00 | 0.00 | 0.00 | 35 | 1012.5 |
| 20260504172025 | 23 | 242 | 6.4 | 17.7 | 0.00 | 0.00 | 0.00 | 36 | 1012.7 |
| 20260504171020 | 22 | 235 | 3.2 | 20.9 | 0.00 | 0.00 | 0.00 | 35 | 1012.8 |
| 20260504151021 | 21 | 305 | 0.0 | 11.3 | 0.00 | 0.00 | 0.00 | 47 | 1014.0 |
| 20260504141038 | 16 | 257 | 0.0 | 3.2 | 0.00 | 0.00 | 0.00 | 53 | 1014.3 |